This is the latest recevied weather packets stored in our database for station/object N0QV. If no packets are shown the sender has not sent any weather packets the latest 10 day(s).
| Time | Temp. | Humidity | Pressure | Rain* | Wind** | Luminosity | Snow |
|---|---|---|---|---|---|---|---|
| 1788442675 | 23.33° C | 82% | 1010.3 hPa | 0 mm | - | 78 W/m² | - |
| 1788442372 | 23.33° C | 83% | 1010.4 hPa | 0 mm | - | 58 W/m² | - |
| 1788442072 | 23.33° C | 82% | 1010.4 hPa | 0 mm | - | 91 W/m² | - |
| 1788441767 | 23.33° C | 82% | 1010.4 hPa | 0 mm | - | 96 W/m² | - |
| 1788441462 | 22.78° C | 83% | 1010.4 hPa | 0 mm | - | 96 W/m² | - |
| 1788441162 | 22.78° C | 84% | 1010.6 hPa | 0 mm | - | 82 W/m² | - |
| 1788440857 | 22.78° C | 84% | 1010.1 hPa | 0 mm | - | 84 W/m² | - |
| 1788440552 | 22.78° C | 84% | 1010.2 hPa | 0 mm | - | 61 W/m² | - |
| 1788440250 | 22.78° C | 85% | 1010.1 hPa | 0 mm | - | 49 W/m² | - |
| 1788439945 | 22.78° C | 84% | 1010.5 hPa | 0 mm | - | 58 W/m² | - |
| 1788439644 | 22.78° C | 84% | 1010.2 hPa | 0 mm | - | 60 W/m² | - |
| 1788439340 | 22.78° C | 85% | 1010.3 hPa | 0 mm | - | 47 W/m² | - |
| 1788439038 | 22.78° C | 85% | 1010.5 hPa | 0 mm | - | 35 W/m² | - |
| 1788438738 | 22.78° C | 85% | 1010.1 hPa | 0 mm | - | 33 W/m² | - |
| 1788438432 | 22.22° C | 86% | 1010.1 hPa | 0 mm | - | 36 W/m² | - |
| 1788438127 | 22.22° C | 87% | 1010.2 hPa | 0 mm | - | 29 W/m² | - |
| 1788437825 | 22.22° C | 86% | 1010 hPa | 0 mm | - | 20 W/m² | - |
| 1788437521 | 22.22° C | 87% | 1010.1 hPa | 0 mm | - | 13 W/m² | - |
| 1788437221 | 22.22° C | 87% | 1010.2 hPa | 0 mm | - | 9 W/m² | - |
| 1788436915 | 22.22° C | 87% | 1010 hPa | 0 mm | - | 6 W/m² | - |
| 1788436613 | 22.22° C | 87% | 1010.4 hPa | 0 mm | - | 3 W/m² | - |
| 1788436309 | 22.22° C | 87% | 1010.3 hPa | 0 mm | - | 0 W/m² | - |
| 1788436009 | 22.22° C | 86% | 1010.4 hPa | 0 mm | - | 0 W/m² | - |
| 1788435704 | 22.22° C | 88% | 1010.5 hPa | 0 mm | - | 0 W/m² | - |
| 1788435399 | 21.67° C | 87% | 1010.4 hPa | 0 mm | - | 0 W/m² | - |
* Rain latest hour (hover to see other rain measurements)
** Current wind speed in m/s (hover to see current wind gust speed)